Temp
62 62 62 62 62 62 62 62 63 63 63 63 63 63 63 63 63 80 88 96 93 79 82 101 98 101 104 99 103 105 88 72 88 86 86 95 91 95 97 91 92 90 85 87 90
62 62 62 62 62 62 62 62 62 62 62 62 62 62 63 63 78 89 96 84 80 80 97 98 97 101 98 99 102 99 90 90 97 95 91 94 92 91 91 89 89 86 89 90 91
61 61 61 62 62 62 62 62 62 62 61 62 62 62 63 66 84 95 83 81 80 84 103 104 104 102 96 101 102 100 91 97 97 98 98 93 92 96 91 86 87 82 84 87 88
61 61 61 61 61 61 62 62 61 61 61 61 62 62 63 79 77 97 82 80 80 99 100 101 100 95 94 93 102 94 100 99 99 100 97 93 96 93 93 92 95 92 89 86 87
60 60 60 60 61 61 61 61 61 60 61 61 62 63 75 83 88 97 81 82 92 95 96 97 96 96 91 98 100 96 98 100 101 100 98 98 94 93 92 96 96 94 92 88 86
60 60 60 60 60 60 60 60 60 60 60 61 62 62 77 77 105 102 103 96 100 96 97 100 99 102 98 97 97 101 100 99 100 97 98 94 93 93 93 96 93 92 91 93 90
60 59 59 59 60 60 60 60 60 60 61 62 64 73 83 86 108 110 107 102 103 100 96 102 105 101 101 96 104 101 94 97 97 97 95 97 89 87 94 95 90 90 91 93 94
59 59 59 59 59 59 59 59 59 60 62 64 66 78 80 104 106 105 107 104 105 106 102 106 107 102 99 103 100 95 95 86 95 96 96 91 79 90 95 92 89 90 91 92 94
59 59 59 59 59 59 58 59 60 62 64 67 72 80 82 97 98 106 106 101 103 104 104 107 104 97 98 90 88 91 82 84 85 98 93 86 75 91 96 93 89 90 90 91 92
58 58 58 58 58 58 58 59 67 65 70 83 86 81 90 92 101 103 107 105 100 99 97 96 95 89 90 87 77 83 82 83 83 92 91 77 69 86 94 93 90 91 91 91 91
58 58 58 58 58 57 61 79 79 75 79 84 89 87 96 101 107 101 105 101 100 95 85 91 84 80 86 90 92 92 83 78 88 94 92 77 76 84 93 94 91 91 90 91 92
58 57 57 57 57 57 64 78 84 85 75 89 89 92 99 104 92 98 105 92 90 84 89 86 80 89 93 94 92 91 87 84 88 92 93 92 84 91 93 94 95 93 92 93 94
57 57 57 56 57 68 84 85 93 93 75 83 90 90 94 100 92 93 99 94 88 85 86 82 87 94 92 91 89 90 88 88 84 92 95 92 86 89 93 96 97 98 97 96 95
57 57 56 55 65 77 81 91 93 93 68 79 86 91 96 97 89 102 102 95 90 84 87 86 95 91 89 88 91 84 95 94 91 86 78 92 75 86 92 91 94 96 96 97 96
57 56 56 55 63 72 85 91 92 86 57 90 91 105 98 90 93 93 104 96 86 87 88 84 88 89 86 89 94 88 96 93 92 87 86 84 80 85 92 88 91 95 97 99 99
56 56 56 68 73 78 88 89 85 65 58 84 91 88 87 90 90 96 95 98 96 89 91 89 98 94 93 95 96 97 93 92 92 88 75 84 82 83 87 91 94 97 98 100 100
55 55 57 67 70 85 86 80 64 60 87 84 83 87 86 84 86 89 86 83 80 74 76 85 88 95 97 90 95 93 87 74 72 74 72 86 82 84 95 98 99 98 99 100 102
54 54 65 77 80 82 80 68 54 74 76 93 90 87 81 86 85 86 84 80 86 85 80 75 73 88 95 90 87 88 87 77 64 69 74 86 77 86 99 102 104 103 102 102 102
53 70 73 81 85 83 70 57 63 72 85 86 88 83 81 86 86 84 84 82 86 86 77 77 77 93 95 96 94 87 81 92 81 83 77 82 87 95 100 100 102 102 102 101 102
58 63 70 83 88 77 63 56 69 80 86 83 76 84 79 82 82 82 82 88 86 91 93 85 76 90 93 96 95 90 94 80 83 66 66 77 79 81 88 93 98 99 101 101 102
60 63 80 87 83 68 56 61 69 77 78 75 75 77 82 83 85 83 82 88 91 91 92 89 84 84 90 85 84 86 84 87 87 82 72 70 78 89 91 95 96 99 102 104 104
62 55 82 84 63 65 60 65 66 74 80 79 80 78 77 79 78 83 83 87 96 94 85 90 86 77 84 93 95 92 86 87 79 72 81 79 80 101 97 99 99 101 102 105 107
55 61 78 78 55 60 67 68 72 72 74 75 75 78 80 76 71 80 85 96 97 93 87 91 81 73 76 87 92 86 89 90 89 86 76 73 78 100 101 101 100 100 102 104 105
55 54 69 71 69 62 62 64 67 76 75 77 74 78 75 73 78 75 80 91 97 96 79 87 85 77 74 78 87 81 85 88 87 78 78 81 83 91 96 97 99 100 102 103 103
56 51 56 49 55 61 64 64 62 62 71 73 69 71 70 66 71 73 80 85 92 86 89 89 77 82 84 87 88 87 85 86 83 85 79 84 84 91 93 97 99 100 98 100 100
48 45 50 54 60 57 57 59 58 62 65 66 66 71 72 67 71 70 72 79 80 87 85 89 75 80 79 86 86 83 88 87 87 87 86 87 86 98 99 101 100 99 99 97 99
54 56 50 51 57 57 57 59 61 65 68 69 67 64 64 67 70 71 73 73 74 72 75 80 78 74 71 82 82 75 83 87 87 90 88 81 88 96 95 96 98 99 100 99 99
MSLP
1018.54 1018.07 1017.64 1017.12 1016.61 1016.14 1015.56 1015.00 1014.52 1014.01 1013.48 1013.00 1012.57 1012.04 1011.57 1011.24 1010.03 1009.00 1006.76 1004.65 1004.74 1004.90 1005.30 1004.45 1004.40 1002.94 1002.06 1001.45 1000.33 999.42 999.14 999.57 997.58 998.60 1000.14 1000.83 1001.13 1002.18 1003.16 1004.12 1005.02 1006.04 1008.06 1009.84 1010.87
1018.68 1018.10 1017.57 1017.05 1016.51 1016.02 1015.47 1014.85 1014.37 1013.89 1013.34 1012.83 1012.36 1011.84 1011.34 1011.03 1009.40 1006.56 1004.15 1004.20 1004.39 1004.80 1004.82 1003.77 1002.88 1002.20 1000.99 999.96 998.66 997.83 997.25 997.22 997.62 998.76 999.77 1000.63 1001.58 1002.50 1003.09 1004.12 1005.12 1006.82 1008.68 1009.98 1010.61
1018.74 1018.26 1017.73 1017.07 1016.48 1015.89 1015.32 1014.72 1014.14 1013.66 1013.18 1012.66 1012.24 1011.81 1011.36 1010.90 1007.90 1003.61 1003.45 1003.80 1004.22 1004.41 1003.96 1003.18 1002.38 1001.60 1000.54 999.14 997.71 997.22 996.84 997.16 998.06 998.96 999.86 1000.86 1001.65 1001.95 1002.68 1003.65 1005.16 1007.12 1008.74 1009.84 1010.62
1018.78 1018.14 1017.59 1017.09 1016.50 1015.86 1015.21 1014.48 1013.82 1013.35 1012.90 1012.44 1011.99 1011.68 1011.20 1010.10 1006.16 1003.54 1003.66 1003.94 1004.34 1004.05 1003.87 1002.85 1002.06 1001.48 1000.05 998.62 997.56 997.28 997.22 997.37 998.35 999.11 999.73 1000.52 1001.38 1001.68 1002.28 1003.29 1004.80 1006.64 1008.45 1009.93 1010.47
1018.82 1018.22 1017.55 1016.87 1016.24 1015.65 1015.03 1014.30 1013.54 1012.97 1012.53 1012.12 1011.74 1011.49 1010.46 1008.08 1004.30 1003.60 1003.94 1004.04 1004.24 1004.16 1003.23 1002.44 1001.58 1000.99 999.60 998.09 997.53 996.99 997.12 997.60 998.36 999.10 999.97 1000.48 1001.12 1001.90 1002.98 1003.84 1005.23 1006.58 1007.77 1009.00 1009.92
1018.92 1018.22 1017.53 1016.78 1015.99 1015.26 1014.61 1013.96 1013.23 1012.60 1012.14 1011.72 1011.47 1011.48 1010.00 1006.19 1002.54 1002.44 1003.02 1003.68 1002.96 1003.30 1002.68 1002.02 1001.06 1000.49 999.45 998.38 997.40 997.00 997.26 997.56 998.40 999.64 999.95 1000.67 1001.66 1002.26 1003.44 1004.37 1005.57 1006.66 1007.42 1007.93 1008.68
1018.92 1018.22 1017.45 1016.64 1015.86 1014.95 1014.14 1013.45 1012.74 1012.04 1011.64 1011.29 1011.12 1010.66 1007.80 1004.00 1001.43 1001.23 1001.82 1002.21 1002.37 1002.36 1002.10 1001.50 1000.90 1000.18 999.51 998.53 997.62 997.39 997.35 997.61 998.32 999.45 999.91 1000.75 1001.46 1002.61 1003.65 1004.60 1005.66 1006.58 1007.10 1007.48 1007.84
1018.91 1018.17 1017.37 1016.44 1015.54 1014.70 1013.71 1012.79 1012.08 1011.31 1010.90 1010.69 1010.58 1009.62 1005.56 1001.95 1001.91 1001.39 1001.27 1001.16 1001.60 1001.59 1001.80 1001.05 1000.84 1000.28 999.56 998.69 997.78 997.32 997.13 997.33 998.05 999.10 999.93 1001.11 1002.03 1002.78 1003.78 1004.61 1005.51 1006.17 1006.62 1007.04 1007.43
1018.78 1018.01 1017.16 1016.19 1015.20 1014.14 1013.24 1012.02 1011.08 1010.42 1010.25 1010.14 1009.81 1007.80 1003.26 1000.81 1000.91 1000.36 1000.78 1000.42 1000.71 1000.94 1001.32 1001.05 1000.58 1000.21 999.88 999.20 997.88 997.22 996.97 997.24 998.64 998.81 999.91 1001.32 1002.80 1002.90 1003.33 1004.12 1004.95 1005.62 1006.21 1006.67 1007.16
1018.72 1017.86 1016.95 1015.79 1014.79 1013.74 1012.59 1010.58 1009.67 1009.88 1009.47 1008.66 1007.46 1006.16 1001.59 999.78 999.66 999.96 1000.13 1000.18 1000.12 1000.45 1000.72 1000.79 1000.49 1000.02 999.60 998.70 997.20 996.43 996.79 997.70 998.44 998.78 999.49 1001.54 1002.96 1002.64 1002.60 1003.20 1003.98 1004.66 1005.42 1006.01 1006.51
1018.74 1017.78 1016.69 1015.49 1014.28 1013.21 1012.34 1009.31 1008.89 1008.58 1007.44 1004.56 1002.45 1001.56 999.22 999.09 998.79 999.22 999.65 999.92 999.73 1000.02 999.93 1000.18 1000.01 998.90 998.56 998.06 996.82 995.99 996.73 998.45 998.20 998.46 998.63 1000.47 1001.89 1002.06 1001.46 1001.71 1002.68 1003.51 1004.31 1005.00 1005.57
1018.62 1017.74 1016.59 1015.22 1013.80 1012.45 1012.10 1009.20 1007.34 1007.13 1005.13 1003.02 1001.83 1000.62 999.13 998.09 998.30 998.47 999.00 999.34 999.37 999.16 999.56 999.50 998.44 998.23 998.01 997.39 996.64 996.08 996.02 996.58 997.55 998.16 998.04 997.98 999.36 999.53 1000.11 1000.33 1000.86 1002.08 1003.03 1003.81 1004.64
1018.57 1017.63 1016.57 1015.14 1013.16 1011.30 1009.51 1007.76 1007.22 1006.43 1004.61 1000.65 999.30 998.80 998.38 997.83 997.58 997.72 998.29 998.64 998.68 998.74 998.51 997.73 997.62 997.91 997.23 996.50 996.09 995.54 995.08 995.20 996.00 996.96 997.09 997.11 997.66 998.13 998.61 999.36 999.71 1000.49 1001.68 1002.68 1003.39
1018.51 1017.56 1016.68 1015.42 1012.58 1011.00 1008.53 1007.54 1007.15 1006.58 1003.87 998.00 996.46 996.45 997.31 997.41 997.08 996.87 997.56 998.12 997.97 997.89 997.87 997.63 996.84 996.78 996.63 995.95 995.64 994.91 994.60 994.48 995.18 995.99 996.30 996.57 996.26 996.56 997.17 997.73 998.63 999.26 1000.20 1001.32 1002.22
1018.38 1017.58 1016.85 1016.48 1014.66 1011.21 1008.45 1008.00 1007.40 1006.43 1001.53 993.98 994.23 994.17 995.34 996.06 995.88 996.31 996.56 997.47 997.15 996.95 997.27 996.41 996.22 995.68 995.61 995.50 995.32 994.82 994.36 994.57 994.76 994.88 995.35 995.68 996.05 995.36 995.91 996.24 996.94 997.91 998.84 999.89 1001.08
1018.10 1017.36 1016.79 1014.12 1012.90 1010.60 1009.03 1008.23 1007.40 1004.86 998.30 993.78 993.65 994.00 994.67 995.33 995.61 995.21 996.01 997.04 997.12 996.79 996.34 995.92 995.60 995.24 994.84 995.20 994.96 994.92 994.65 994.52 994.57 994.72 994.81 994.76 995.09 993.97 994.19 994.28 995.11 996.28 997.44 998.55 999.72
1017.55 1016.69 1016.10 1015.10 1011.50 1009.78 1009.28 1008.09 1005.82 1001.16 995.14 992.63 993.04 993.55 993.79 994.17 995.02 994.84 995.40 995.86 996.10 996.16 995.52 995.44 994.88 994.68 994.67 994.39 994.67 994.58 994.48 994.42 994.54 994.24 994.13 994.22 994.04 993.50 993.13 993.02 993.84 994.86 996.19 997.48 998.44
1017.10 1015.60 1013.08 1011.72 1010.98 1010.32 1009.37 1007.71 1003.38 997.84 995.48 991.89 991.96 992.74 993.04 993.27 994.05 994.24 994.36 994.81 995.52 995.29 994.96 994.44 994.22 993.86 993.80 993.82 993.69 993.84 994.07 993.87 993.84 993.77 993.86 993.63 993.09 992.57 992.65 992.83 993.38 994.00 994.95 996.14 997.41
1016.81 1013.57 1011.34 1009.52 1009.21 1009.26 1008.62 1005.51 1000.41 998.04 994.61 993.06 992.13 991.66 992.32 992.52 992.80 993.55 993.09 993.63 994.05 994.51 994.04 993.36 993.25 993.22 993.23 993.48 993.59 993.44 993.47 994.01 993.79 993.58 993.46 992.80 992.37 992.40 992.09 992.31 992.80 993.41 994.13 995.04 996.12
1016.84 1013.51 1009.65 1008.64 1007.80 1008.63 1007.52 1003.74 1000.68 997.71 995.84 994.99 993.01 991.77 991.28 991.69 991.96 992.26 992.03 992.24 992.96 993.43 993.72 993.02 992.56 992.50 992.73 993.28 993.26 993.10 993.77 993.68 993.38 993.24 993.01 992.38 991.69 991.84 991.78 992.18 992.62 993.10 993.66 994.21 995.00
1016.18 1011.94 1007.69 1007.40 1008.06 1007.79 1005.54 1003.53 1001.80 999.59 998.95 997.39 995.10 993.27 992.02 991.20 991.28 991.05 991.28 991.61 991.76 992.19 992.92 992.98 992.37 991.55 991.82 991.91 992.49 993.01 992.90 992.76 993.18 993.38 992.79 992.30 991.30 990.95 991.29 991.81 992.12 992.75 993.18 993.24 993.99
1015.46 1011.69 1007.44 1007.86 1007.63 1006.26 1004.87 1004.03 1002.68 1000.05 999.07 997.64 996.52 995.21 994.17 993.12 992.01 990.56 990.03 990.07 990.50 991.18 991.32 992.21 992.18 991.37 990.70 991.03 991.95 992.27 992.37 992.50 992.25 992.98 992.69 992.21 991.09 990.19 990.46 991.18 991.69 992.14 992.42 992.60 993.11
1015.48 1011.71 1008.39 1007.73 1006.78 1005.48 1004.30 1003.06 1002.04 1000.69 999.40 998.45 997.07 996.56 995.95 994.89 993.87 991.64 989.93 989.28 989.58 989.96 990.52 991.42 991.70 991.57 991.14 990.48 990.71 991.49 991.79 991.89 992.22 992.65 992.29 992.38 991.59 990.66 990.44 990.43 990.96 991.62 992.20 992.69 993.31
1016.53 1011.52 1007.40 1007.20 1006.91 1006.02 1004.30 1002.62 1001.20 1000.40 999.54 998.78 998.44 997.81 997.16 996.14 995.33 993.54 991.67 989.75 989.38 989.60 990.57 990.74 991.07 991.22 990.36 990.38 990.18 990.86 991.47 991.60 991.82 991.56 991.88 991.50 991.48 990.97 990.64 990.55 991.18 991.71 992.23 992.79 993.26
1016.60 1013.86 1012.19 1009.72 1007.83 1006.64 1005.23 1003.78 1002.42 1001.15 1000.41 1000.16 999.88 999.24 998.72 997.63 996.43 995.05 993.70 991.76 990.48 990.74 991.12 990.98 990.67 990.86 991.01 990.56 990.31 989.90 990.59 991.16 991.04 991.06 991.24 991.27 991.02 990.77 990.64 990.77 990.96 991.48 992.12 992.76 993.31
1017.30 1016.22 1014.50 1011.60 1009.45 1008.20 1006.38 1005.30 1004.55 1003.42 1002.20 1000.97 1000.74 1000.20 999.74 999.03 998.21 997.29 996.56 994.32 992.85 992.14 991.78 991.56 991.29 991.50 990.92 990.93 990.57 989.73 989.53 989.93 990.36 990.74 990.78 990.97 990.49 990.58 990.58 990.58 990.71 991.25 991.94 992.55 993.10
1017.73 1017.18 1015.91 1012.74 1010.16 1008.45 1007.05 1006.13 1004.99 1004.26 1003.33 1002.81 1002.50 1002.10 1001.40 1001.10 1000.68 1000.29 999.54 998.02 996.73 995.49 993.64 992.20 991.81 991.98 990.86 991.23 990.81 989.80 988.96 988.81 989.36 989.89 990.29 990.22 990.34 990.54 990.24 990.47 990.72 990.99 991.44 991.90 992.61
Wind_Speed
21 21 20 20 20 19 20 20 20 20 20 20 18 18 17 16 21 8 12 9 7 19 5 10 14 19 16 17 20 19 7 12 14 18 13 12 11 17 15 11 16 9 24 24 22
21 22 22 22 21 20 20 20 20 19 20 19 18 18 18 16 12 21 22 12 15 14 10 14 14 14 13 18 16 11 8 10 17 15 14 12 14 14 14 13 14 26 22 23 21
22 22 22 23 23 22 21 21 21 21 20 20 19 17 17 16 14 17 8 11 14 16 14 16 15 17 15 19 16 10 8 16 15 15 13 15 14 12 14 14 24 25 24 23 21
23 23 24 23 23 24 23 23 23 21 21 20 19 17 16 7 7 6 9 11 11 14 15 19 17 17 17 20 3 12 7 15 15 12 11 15 11 10 13 17 21 24 27 21 20
23 23 25 25 25 25 25 24 24 23 22 20 18 15 10 10 20 7 10 10 12 15 19 19 17 16 19 19 3 11 12 14 12 14 12 11 12 12 10 17 21 21 23 28 21
23 23 23 24 25 25 24 24 24 23 22 20 15 8 7 18 17 18 13 10 11 16 19 20 16 17 19 19 9 4 7 14 16 12 11 13 11 12 13 17 20 20 19 17 25
22 23 24 25 26 27 27 26 25 24 21 17 10 7 12 21 11 7 10 15 14 18 20 20 18 18 14 14 11 10 14 11 17 13 7 15 14 14 16 16 19 18 17 17 16
23 24 25 26 27 27 28 28 26 25 19 14 7 9 11 17 23 20 11 15 14 16 19 17 17 18 19 18 10 16 15 15 17 13 12 12 10 15 17 17 17 18 16 15 16
23 25 26 27 28 29 28 30 27 21 12 7 8 10 17 4 19 16 15 16 16 17 17 16 16 17 17 16 15 17 13 16 2 13 17 9 3 15 18 17 17 16 16 15 14
24 25 27 29 29 30 31 32 13 8 8 10 12 10 20 17 15 17 17 17 16 14 15 16 13 16 16 16 15 18 15 16 16 14 21 19 14 18 19 19 18 18 17 17 17
23 26 28 30 31 30 21 8 6 8 12 14 13 15 18 17 16 16 19 19 15 18 19 20 15 18 22 23 24 20 25 26 14 10 15 25 17 21 22 21 20 18 18 18 18
24 26 28 32 33 34 13 10 9 9 13 19 27 25 25 12 10 15 22 20 17 19 20 16 23 23 24 24 24 22 17 26 18 27 14 13 26 26 22 20 21 20 19 19 18
24 26 28 31 36 17 12 7 10 12 10 17 26 26 26 19 17 19 23 23 20 22 24 24 22 23 24 25 23 23 20 16 18 16 16 9 14 18 25 19 19 20 20 18 20
24 26 27 32 13 16 7 11 12 11 8 12 16 25 28 24 21 19 23 22 18 23 23 22 23 25 25 25 23 22 20 12 13 12 12 15 11 14 15 22 19 19 21 20 19
24 25 24 19 15 10 16 14 13 10 8 7 17 12 20 30 9 26 25 23 26 19 22 23 23 25 24 27 24 21 20 13 18 13 14 18 12 8 13 18 22 21 20 21 19
25 25 24 15 8 16 17 14 11 7 11 8 11 14 24 25 31 20 23 23 20 24 21 24 22 25 24 26 25 23 19 19 18 14 12 13 12 8 16 17 21 22 21 20 21
28 28 24 12 9 15 13 10 8 12 10 13 21 17 24 25 28 26 27 27 24 23 22 22 24 24 23 24 27 25 20 13 15 14 13 17 17 14 7 15 14 19 19 19 19
29 34 13 12 15 16 9 10 15 11 27 5 17 18 23 23 26 28 26 25 28 25 18 20 20 27 20 30 22 23 22 14 17 11 14 16 14 12 11 10 6 18 20 21 20
32 12 13 14 17 8 9 15 9 18 12 18 13 16 20 20 18 26 29 26 27 29 23 19 23 21 27 23 23 22 24 23 24 16 12 13 18 17 10 10 10 11 18 20 21
14 16 16 18 9 9 12 23 20 24 17 22 20 17 18 23 26 26 26 26 29 29 28 22 15 22 25 19 23 26 17 23 16 20 18 17 12 11 14 13 13 10 12 18 19
9 10 12 9 5 10 16 21 25 32 28 14 20 19 18 18 23 19 27 21 27 27 28 27 21 17 24 24 24 18 23 23 20 17 16 14 13 18 13 13 12 12 15 14 18
9 9 4 5 10 9 16 24 24 30 25 23 19 20 19 21 20 20 25 26 24 27 30 26 18 18 19 25 25 24 26 26 14 17 15 14 14 14 17 17 17 19 16 11 7
10 14 16 12 12 13 19 25 26 27 26 24 23 19 20 21 19 16 19 22 21 23 26 22 21 17 21 17 26 25 23 25 21 17 18 17 14 16 12 5 16 13 10 3 3
7 9 6 13 12 20 21 18 21 26 26 18 16 18 20 21 20 16 20 15 13 19 7 19 22 20 17 19 17 24 24 24 24 17 15 17 18 18 16 9 9 9 6 2 2
8 10 13 11 11 17 15 19 14 17 4 10 15 19 19 20 20 21 20 21 10 3 5 8 19 21 26 27 25 23 24 26 26 22 21 17 22 15 14 8 11 12 9 7 6
9 7 10 17 13 15 12 9 12 16 15 13 14 17 14 20 20 17 18 19 14 6 14 14 14 17 23 25 28 27 23 27 27 26 24 23 22 17 17 16 12 9 10 8 5
5 9 7 13 15 13 11 16 15 15 16 10 13 15 13 18 20 20 18 18 17 16 17 19 13 15 19 21 23 24 26 23 24 24 23 22 18 18 18 10 7 6 9 12 11
Wind_Direction
359 356 354 351 348 345 340 336 334 332 329 326 324 319 317 317 303 236 255 259 192 172 210 218 227 256 259 263 253 255 234 264 69 91 106 122 93 76 86 119 145 99 137 142 150
357 354 351 349 345 342 337 332 329 327 325 323 322 319 319 325 289 274 254 163 145 163 206 230 239 246 269 266 269 258 271 53 87 110 106 115 112 129 128 118 112 111 124 143 155
354 352 349 346 342 339 334 329 326 324 321 320 319 317 317 316 283 281 83 130 159 179 233 240 250 270 267 270 281 293 56 89 70 102 118 100 126 147 143 129 126 133 143 151 159
351 348 346 343 339 335 331 326 322 320 318 317 316 315 315 271 281 101 162 157 174 206 232 243 241 256 265 265 228 275 77 89 115 104 142 120 146 122 65 124 127 138 148 153 163
347 343 340 336 333 330 327 322 318 316 314 313 312 316 298 239 250 146 147 157 180 215 219 228 232 242 261 274 107 273 110 111 103 94 91 156 131 101 105 116 125 144 154 160 165
342 339 335 332 329 326 322 319 314 311 309 308 306 306 247 259 258 156 188 177 192 204 221 231 232 240 269 292 278 220 141 131 128 121 163 107 125 112 115 127 135 149 160 173 159
339 336 332 329 326 322 319 316 311 305 302 298 290 247 259 244 273 219 212 193 218 203 222 227 237 250 247 270 257 260 202 157 131 152 145 137 166 115 135 138 147 158 170 174 178
337 333 330 326 323 320 316 313 306 300 294 282 242 224 257 253 235 245 237 215 205 210 225 234 238 254 270 283 281 239 206 187 149 175 134 100 107 130 147 147 158 166 177 176 177
335 332 328 324 321 318 316 309 299 289 266 254 207 227 258 233 228 229 212 223 194 214 210 237 239 240 248 255 254 226 226 132 113 187 114 123 359 148 162 160 167 173 177 181 183
334 330 327 322 321 319 319 298 281 300 223 211 260 261 244 227 203 214 203 226 199 203 206 218 230 229 231 236 231 213 208 137 175 198 136 118 186 240 176 172 174 180 181 186 186
333 330 327 322 320 318 328 319 204 188 237 229 201 219 279 205 219 191 202 211 200 204 204 201 216 214 223 229 241 249 137 186 252 211 185 163 176 214 184 177 178 183 182 186 193
332 329 326 322 318 315 293 273 41 323 289 254 250 254 258 205 193 203 186 203 199 205 204 189 221 220 222 221 239 250 249 180 184 228 210 192 184 177 181 188 178 183 184 189 192
330 328 326 323 316 294 310 323 321 317 270 260 230 229 228 242 209 200 187 202 199 210 204 218 213 221 226 235 229 244 250 219 163 184 198 227 207 183 177 188 186 182 184 192 188
329 326 327 332 291 332 289 15 320 323 276 248 201 219 217 225 226 227 195 201 205 213 217 220 228 210 226 230 237 242 244 258 199 186 224 210 248 178 192 176 189 189 182 189 192
326 323 324 320 298 292 340 325 320 276 277 141 168 187 191 205 192 214 189 207 220 205 211 219 223 218 214 229 232 243 252 240 256 192 239 183 232 218 207 189 182 189 193 188 187
322 319 323 304 231 258 277 322 285 232 238 176 136 182 191 197 221 184 210 203 221 238 220 231 219 233 226 218 234 237 242 242 242 247 236 230 229 239 195 193 184 182 186 191 182
320 313 307 281 263 349 309 282 224 235 228 213 163 189 196 194 207 227 199 193 213 214 228 219 236 220 234 231 223 230 231 235 234 226 242 236 208 235 296 167 187 173 180 189 185
320 309 271 248 239 254 277 245 238 241 236 330 173 188 209 192 204 218 189 209 206 218 218 218 214 228 201 231 225 222 226 232 227 226 233 235 249 237 214 148 185 170 181 182 190
315 309 285 265 208 236 242 222 222 240 286 236 233 199 197 204 197 210 225 206 208 217 222 213 227 206 231 217 232 223 223 237 249 244 249 240 216 232 206 214 181 179 178 180 186
317 299 265 246 167 216 236 235 230 272 289 326 288 238 226 202 206 195 216 206 217 209 230 239 222 220 211 214 226 238 222 230 234 246 248 242 251 192 199 207 213 189 234 178 183
282 290 263 165 217 229 239 242 250 265 283 289 295 282 268 230 214 204 214 214 210 218 212 236 244 226 210 198 218 210 232 234 233 236 257 254 262 198 159 194 190 195 235 208 184
298 273 164 234 246 236 241 244 265 269 272 271 265 282 292 300 299 245 213 215 209 207 215 217 236 248 230 203 206 225 221 234 229 228 247 268 263 271 161 176 185 202 213 221 208
299 286 282 279 253 251 251 250 245 253 254 263 268 269 275 282 297 276 283 219 213 209 210 207 223 237 244 240 194 213 228 228 237 232 224 238 259 269 280 262 175 186 231 124 125
287 289 266 220 239 265 285 283 247 234 250 261 281 265 273 270 265 277 295 288 216 218 9 220 215 225 238 229 201 199 222 232 234 234 237 248 241 247 260 153 144 180 180 183 189
287 295 341 296 329 319 303 263 306 296 274 286 255 260 265 272 264 258 267 279 258 232 267 239 233 227 227 251 240 202 209 220 237 235 235 236 245 252 261 245 197 196 173 210 191
295 320 328 296 297 286 282 291 281 282 294 275 235 258 263 251 264 297 336 277 277 300 231 238 246 253 236 233 247 258 227 212 224 235 246 244 252 253 229 256 246 177 182 188 210
328 305 300 306 299 284 339 330 262 257 254 304 306 319 294 5 343 325 308 298 298 294 295 240 227 238 234 232 248 247 244 230 213 225 237 241 246 253 261 268 270 244 227 195 204